Temperature
10 9 11 13 15 16 17 17 17 18 18 17 18 19 20 20 19 19 19 17 16 14 14 15 16 16 17 17 17 17 18 17 17 16 15 14 14 13 13 13 12 12 12 12
10 9 12 15 15 16 17 17 17 18 17 17 18 19 20 20 19 19 19 17 16 14 13 13 15 15 16 16 17 17 17 16 16 15 15 14 13 12 12 12 12 12 12 11
9 11 12 14 15 15 16 17 17 17 17 17 17 19 20 19 17 16 16 16 15 14 13 13 14 15 16 16 16 16 16 15 15 14 14 13 12 12 12 11 11 11 11 11
10 12 12 13 14 15 15 17 17 17 17 17 17 17 20 20 18 16 15 15 14 13 13 12 13 14 15 15 15 15 15 14 14 13 13 12 12 12 11 11 11 10 10 10
10 11 11 12 14 16 16 16 16 16 16 16 17 17 19 19 19 18 16 14 13 12 12 12 13 14 14 14 14 14 13 13 13 13 12 12 12 11 11 10 10 10 10 9
11 11 12 13 15 16 15 15 15 15 15 15 17 17 19 21 20 18 16 14 12 12 11 11 12 13 13 13 13 13 13 13 12 12 12 11 11 10 10 10 10 9 9 9
10 10 11 13 13 13 15 15 13 13 14 16 17 17 19 20 18 18 16 14 12 11 11 10 11 12 12 12 12 12 12 12 11 11 11 11 10 10 10 9 9 9 8 8
9 9 11 12 13 13 14 15 15 16 16 17 15 16 20 18 16 15 15 14 12 11 11 10 11 11 12 12 12 11 11 11 11 11 10 10 10 9 9 9 8 8 7 6
10 11 11 13 14 14 14 14 15 16 16 17 18 18 19 16 16 15 14 13 12 11 10 10 10 10 11 11 11 11 11 10 10 10 9 9 9 8 8 8 7 6 6 5
12 11 11 12 13 13 15 15 14 14 16 17 18 18 19 19 18 15 14 13 12 11 10 10 10 10 10 10 10 10 10 9 9 9 8 8 7 7 7 6 6 5 4 4
13 12 11 12 13 13 13 14 15 15 16 17 18 19 19 18 17 16 15 14 13 11 10 9 9 9 10 10 9 9 9 8 8 8 7 7 6 6 5 5 4 4 3 3
13 13 12 12 13 15 15 15 15 15 15 16 18 19 17 16 15 15 14 13 12 11 10 9 9 9 9 9 8 8 8 7 7 7 6 6 5 5 4 4 3 3 3 2
13 14 12 11 12 13 14 15 16 16 16 16 17 19 17 16 15 13 13 13 12 11 9 8 8 8 8 8 7 7 7 7 6 6 5 5 4 4 3 3 3 2 2 1
13 14 15 14 15 14 14 14 15 15 15 16 17 18 18 17 16 14 13 13 12 10 9 8 8 8 7 7 7 6 6 6 5 5 4 4 3 3 2 2 2 1 1 1
13 14 15 15 15 15 15 14 15 15 16 17 17 17 19 19 17 15 13 12 11 9 8 8 8 7 7 7 6 6 5 5 5 4 3 3 2 2 2 1 1 1 0 -0
13 14 14 14 13 14 14 15 15 15 16 17 17 17 19 17 14 14 13 11 10 9 8 8 7 7 6 6 6 5 5 4 4 3 2 2 2 1 1 1 0 -0 -0 -1
13 14 14 14 13 13 14 15 15 16 16 17 17 18 16 14 14 13 12 11 10 9 8 8 7 7 6 6 5 5 4 4 3 2 2 1 1 1 0 -0 -0 -1 -1 -2
13 14 13 13 13 12 17 15 16 16 16 17 17 16 16 15 12 10 10 10 10 9 9 8 7 6 6 5 4 4 3 3 2 1 1 1 0 0 -0 -1 -1 -2 -2 -3
13 13 12 12 13 14 15 13 13 14 15 15 15 13 11 9 10 9 8 9 10 9 9 8 7 6 5 4 4 3 2 2 1 1 1 0 -0 -1 -1 -1 -2 -3 -3 -4
10 11 11 11 12 13 16 13 12 14 15 12 12 11 10 11 13 12 8 9 9 9 8 7 6 5 4 4 3 2 2 1 1 0 -0 -0 -1 -1 -2 -2 -3 -3 -4 -4
10 10 11 11 13 16 13 11 12 15 16 11 11 11 10 12 12 9 9 9 8 8 7 6 5 4 3 3 2 2 1 1 0 -0 -1 -1 -2 -2 -3 -3 -4 -4 -5 -5
12 11 11 12 13 14 11 11 13 13 10 10 10 10 9 9 9 9 8 8 7 7 5 5 4 3 2 2 2 1 1 0 -0 -1 -1 -2 -2 -3 -3 -4 -4 -5 -5 -6
12 13 13 13 13 10 10 11 11 10 10 10 9 9 9 9 8 8 7 7 6 5 5 4 3 2 2 2 1 0 0 -0 -1 -1 -2 -2 -3 -3 -4 -4 -5 -5 -6 -7
9 9 10 10 10 8 8 8 9 9 10 10 10 9 9 8 8 7 7 6 5 5 4 3 2 2 1 1 0 -0 -0 -1 -1 -2 -2 -3 -3 -4 -4 -5 -5 -6 -7 -8
10 8 9 10 8 8 7 7 8 10 10 9 9 8 8 8 7 6 6 5 5 4 3 2 1 1 0 -0 -0 -1 -1 -1 -2 -3 -3 -3 -4 -4 -5 -5 -6 -7 -7 -8
8 9 11 12 10 10 9 8 9 9 9 8 8 7 7 7 6 6 5 5 4 3 2 1 1 0 -0 -1 -1 -1 -2 -2 -3 -3 -4 -4 -4 -5 -6 -6 -7 -8 -8 -9
Wind_Speed
16 14 19 25 27 20 19 20 18 15 8 8 14 18 17 15 13 13 11 9 7 6 5 6 7 7 8 9 10 11 11 10 9 8 9 9 9 9 10 10 13 13 13 12
14 20 21 23 24 20 18 19 17 12 6 7 13 18 18 14 11 10 10 11 10 9 8 8 9 9 11 11 12 13 13 13 12 11 10 10 11 10 10 9 12 13 13 12
21 14 18 22 24 23 20 19 17 10 5 6 8 12 9 4 3 4 7 10 10 11 12 11 11 11 11 12 12 12 14 14 14 13 11 10 9 9 8 9 8 11 12 12
21 15 17 23 25 23 21 17 13 10 7 5 3 6 7 6 6 6 9 11 12 12 13 12 12 12 11 11 12 13 14 14 13 12 11 12 10 9 8 6 7 8 11 11
15 16 17 22 25 23 14 13 12 9 8 9 9 8 8 6 7 9 12 13 13 13 13 13 12 12 11 11 11 12 14 14 13 13 12 12 11 9 6 6 7 7 7 9
13 11 14 15 17 16 12 13 7 2 5 8 10 9 7 4 3 7 13 14 14 14 13 13 12 11 11 10 10 11 13 13 13 12 12 12 11 9 8 8 7 6 6 6
12 10 7 10 14 12 13 14 6 6 8 7 5 7 8 0 1 4 13 17 16 15 14 14 14 12 12 11 10 10 12 12 11 12 11 11 10 9 8 7 7 7 6 7
14 10 11 13 12 11 15 15 8 7 8 5 6 7 4 3 0 3 10 16 17 16 14 14 13 12 12 11 10 11 11 11 10 10 10 9 8 6 6 7 7 7 6 7
14 9 8 10 10 12 13 11 3 1 3 4 5 5 5 4 2 3 12 18 19 17 16 14 13 12 12 11 10 10 11 10 9 9 9 8 8 7 7 7 6 6 6 7
8 7 7 6 8 3 7 10 6 4 5 6 5 5 3 4 1 5 13 19 19 18 16 14 13 12 10 10 10 10 10 10 8 7 7 6 7 7 6 6 6 6 7 8
6 7 8 9 11 13 9 10 8 7 5 4 5 3 1 3 4 5 13 18 19 18 16 14 12 11 11 10 10 10 9 9 8 7 6 6 6 6 5 5 6 7 7 9
6 6 8 8 2 11 12 13 13 10 8 6 4 2 3 3 4 5 11 16 17 17 15 14 13 12 11 11 10 9 8 8 7 6 5 5 5 5 5 5 6 7 8 9
7 7 10 7 4 8 12 15 17 10 6 9 8 4 3 0 1 4 11 15 16 16 15 14 13 13 12 11 10 9 8 7 6 5 4 4 4 4 5 6 7 8 9 9
6 6 10 13 9 13 15 19 21 18 12 13 13 9 6 4 4 7 11 14 15 15 15 15 14 13 12 11 9 8 8 6 5 4 3 3 4 5 6 6 7 8 9 10
7 6 7 6 6 16 18 22 24 26 23 17 16 17 14 9 6 8 11 13 14 15 15 15 15 14 12 11 9 8 7 6 4 3 2 3 4 5 6 7 8 8 9 10
8 5 5 5 6 12 14 22 26 28 27 25 19 17 11 6 6 8 11 13 14 14 15 15 15 14 13 11 10 8 7 5 3 2 1 3 4 5 7 8 9 9 10 11
10 6 6 5 5 7 11 20 25 25 27 26 26 23 8 9 10 10 10 12 12 13 14 15 15 14 12 10 9 8 6 5 3 1 2 3 5 6 8 8 9 10 11 12
12 7 3 4 7 8 7 3 16 23 24 22 17 8 12 11 9 6 7 9 10 11 12 13 13 12 11 10 8 7 6 4 2 1 2 4 6 7 9 9 10 11 11 12
7 7 4 3 6 7 5 4 8 13 16 16 15 9 10 14 10 5 3 5 7 9 10 12 12 12 11 10 8 7 5 3 1 2 3 5 7 8 10 11 12 12 12 14
4 5 4 4 5 7 2 5 7 7 7 10 14 15 16 15 11 8 6 7 8 10 11 12 12 12 11 9 8 6 4 2 1 3 4 6 7 9 10 11 12 12 13 14
7 5 8 8 7 7 2 6 9 8 3 12 14 16 15 8 5 10 10 9 10 11 12 13 12 10 9 8 7 5 2 1 2 3 5 7 8 9 11 11 12 13 13 14
13 10 10 8 8 7 7 10 8 2 8 13 15 12 11 11 11 10 10 10 11 12 12 12 11 9 8 7 5 3 1 1 2 4 6 8 9 9 9 11 12 13 14 15
10 8 7 8 5 2 3 3 2 8 14 12 11 11 12 10 8 8 8 10 10 11 11 10 10 9 7 5 3 1 1 2 4 6 8 9 10 10 10 11 12 12 12 12
4 2 4 3 2 1 2 4 7 11 11 11 11 11 9 8 9 9 9 9 10 10 10 9 9 8 6 5 3 1 1 2 5 7 9 9 10 10 10 10 10 11 12 12
6 7 5 3 3 5 4 7 10 10 12 12 10 7 8 10 8 7 7 8 9 9 8 8 8 7 6 5 3 1 1 3 6 8 8 9 9 10 11 10 10 12 11 12
7 8 9 7 12 8 10 11 11 13 11 11 9 7 6 6 7 7 6 7 8 9 9 8 7 7 6 4 2 2 3 5 7 8 8 8 8 9 10 11 12 12 13 18
Wind_Direction
200 217 207 197 200 204 201 208 212 217 210 233 255 268 276 279 265 252 233 205 178 137 99 81 73 69 70 65 64 67 74 87 102 108 108 101 91 84 76 66 61 58 54 50
201 223 215 200 197 206 204 204 209 215 210 249 270 276 278 274 258 242 218 192 168 144 122 100 90 80 75 72 71 71 73 78 83 89 92 95 93 83 77 69 59 53 50 45
209 215 209 198 193 198 202 202 200 198 189 229 280 278 253 221 202 198 191 176 162 149 133 118 102 90 83 75 74 77 78 82 87 94 100 102 97 91 76 64 57 48 45 42
215 223 201 191 192 193 200 203 202 205 234 239 265 291 264 226 211 189 174 168 159 149 137 126 116 103 91 84 83 84 85 85 86 91 93 94 90 82 71 61 58 53 44 37
207 219 206 193 191 192 193 183 197 215 244 267 248 261 270 232 235 202 182 171 162 155 144 134 125 114 103 95 90 89 88 83 82 83 87 87 85 84 77 65 53 45 41 34
212 222 214 196 185 183 146 146 137 159 226 249 234 229 268 223 200 172 176 173 166 159 150 140 133 125 113 106 99 97 93 86 82 81 81 82 84 80 71 56 42 32 28 23
210 226 206 175 158 170 171 157 153 180 205 229 179 222 252 179 148 186 180 175 169 164 159 153 148 138 128 120 111 106 100 93 89 86 82 81 79 74 62 47 34 23 16 13
193 202 189 180 172 171 181 181 185 187 193 185 181 230 246 84 127 226 187 172 168 169 168 163 154 145 136 128 122 115 107 102 98 91 86 80 74 67 57 43 31 23 12 6
191 196 171 175 168 163 172 191 181 106 151 205 207 237 266 147 137 174 177 172 175 175 173 166 157 149 142 135 129 124 118 111 104 97 90 80 70 62 52 39 29 20 10 356
190 172 164 147 140 152 180 163 163 190 192 210 214 231 215 174 183 164 178 179 178 176 173 167 161 152 144 135 131 128 123 116 108 98 86 76 65 55 44 33 25 13 3 354
202 161 156 168 184 171 156 174 180 189 240 227 204 179 148 289 299 213 189 183 178 176 174 170 162 152 143 140 139 134 128 121 111 100 89 77 61 46 35 26 16 4 355 349
197 159 157 178 200 193 190 185 181 188 201 219 233 171 114 295 298 214 185 180 178 176 174 168 159 152 150 148 147 142 135 125 113 101 87 71 54 36 24 17 7 356 349 343
176 159 145 159 185 193 206 201 200 208 210 209 217 207 127 80 99 157 171 174 175 174 170 165 162 160 158 154 151 145 137 127 117 103 84 64 41 22 12 6 357 349 342 334
194 195 201 195 191 183 198 203 205 207 218 221 224 225 189 187 161 157 168 174 174 173 171 169 167 165 161 157 152 145 137 130 120 104 76 45 21 7 360 355 347 339 332 326
209 215 215 216 175 181 197 201 205 214 222 230 231 232 231 219 190 170 169 170 171 172 173 173 171 167 162 157 151 144 139 135 127 109 66 25 1 355 350 345 336 328 322 319
207 213 192 198 192 198 211 211 209 216 223 232 242 241 237 194 162 164 169 172 175 175 176 174 172 169 165 159 151 147 144 139 132 110 31 0 349 347 342 334 325 319 317 318
189 192 191 192 160 175 232 222 215 219 224 227 234 239 195 179 180 175 172 175 178 176 174 174 174 169 161 154 151 151 146 142 136 89 1 351 345 338 331 323 317 316 317 317
189 183 164 147 157 217 228 225 216 221 226 226 234 244 196 184 148 136 153 164 165 168 169 169 165 156 148 145 145 141 141 144 142 26 353 347 336 327 322 318 317 317 316 314
192 170 147 174 213 253 250 191 188 205 226 221 219 181 142 131 124 121 122 142 149 156 156 154 150 145 144 145 144 145 149 153 146 1 346 336 327 320 318 317 317 316 314 312
113 139 155 188 213 236 243 150 165 169 230 192 184 162 151 155 166 157 142 131 128 132 136 137 138 138 140 142 147 156 158 157 17 347 329 322 318 314 312 311 311 311 311 309
152 163 199 213 232 259 122 147 163 194 242 151 162 154 155 163 134 125 130 127 130 131 133 135 137 139 140 144 153 155 148 60 356 325 316 314 312 309 306 306 307 308 309 309
181 184 196 201 224 241 143 157 186 130 122 138 141 140 131 114 109 119 128 132 135 135 137 140 138 134 137 146 149 144 120 23 329 316 311 308 307 305 301 306 308 311 313 313
196 198 191 198 213 61 168 194 154 144 139 138 137 133 129 126 129 130 135 140 144 145 145 145 141 137 139 140 140 145 72 342 318 309 305 304 303 302 303 307 311 314 315 314
189 148 150 172 196 181 169 139 135 140 133 129 129 130 131 131 136 136 140 147 150 151 151 149 146 146 148 150 153 155 329 316 303 299 300 301 303 306 310 310 309 313 315 314
163 162 156 161 156 140 164 154 137 121 118 116 111 114 128 131 137 143 148 156 158 156 154 154 157 158 158 161 172 200 285 288 288 292 295 300 303 306 309 308 308 308 305 305
181 179 180 191 181 169 172 157 143 134 133 132 125 117 118 132 138 142 148 156 159 158 155 157 161 162 160 168 195 238 260 267 278 289 299 304 306 308 309 311 309 300 297 302
Height
1479 1480 1471 1470 1473 1474 1477 1480 1484 1485 1486 1490 1485 1481 1477 1477 1477 1476 1477 1479 1480 1481 1480 1479 1479 1480 1480 1481 1481 1481 1480 1480 1481 1482 1483 1484 1485 1487 1488 1488 1489 1489 1488 1488
1476 1472 1466 1467 1471 1473 1474 1478 1482 1483 1487 1488 1482 1477 1470 1469 1471 1471 1473 1475 1478 1479 1479 1479 1480 1481 1482 1482 1482 1482 1482 1482 1483 1484 1484 1485 1486 1487 1488 1489 1490 1489 1489 1488
1467 1464 1465 1465 1467 1472 1474 1475 1477 1481 1485 1485 1484 1471 1464 1466 1469 1471 1471 1474 1476 1478 1479 1480 1481 1482 1483 1483 1484 1484 1484 1484 1485 1486 1487 1487 1488 1489 1490 1491 1490 1490 1489 1487
1464 1462 1461 1461 1463 1467 1472 1472 1475 1481 1484 1480 1483 1478 1461 1459 1464 1468 1470 1473 1475 1477 1479 1480 1481 1483 1483 1484 1485 1485 1486 1486 1487 1488 1489 1490 1491 1491 1491 1491 1491 1490 1488 1486
1459 1459 1458 1457 1458 1462 1466 1472 1477 1481 1483 1483 1478 1480 1460 1456 1458 1461 1467 1471 1474 1477 1478 1479 1481 1482 1484 1485 1486 1487 1488 1488 1489 1491 1491 1492 1492 1492 1492 1492 1491 1489 1487 1484
1455 1457 1456 1454 1457 1463 1467 1474 1481 1484 1485 1485 1471 1473 1459 1449 1451 1456 1464 1469 1472 1476 1478 1479 1481 1482 1484 1486 1487 1489 1489 1490 1491 1492 1493 1493 1493 1493 1492 1491 1490 1487 1484 1481
1456 1455 1453 1452 1459 1466 1465 1472 1488 1490 1487 1473 1469 1469 1455 1447 1453 1455 1460 1465 1470 1474 1477 1479 1480 1482 1484 1486 1488 1489 1490 1491 1492 1493 1493 1493 1493 1492 1491 1490 1488 1485 1482 1479
1453 1453 1449 1450 1452 1458 1461 1464 1470 1470 1468 1464 1473 1466 1448 1451 1454 1456 1458 1463 1469 1473 1476 1479 1480 1482 1484 1486 1488 1490 1491 1491 1492 1493 1493 1492 1492 1491 1490 1488 1486 1483 1480 1477
1445 1446 1446 1447 1450 1453 1460 1463 1462 1463 1465 1464 1457 1453 1446 1451 1452 1454 1456 1461 1466 1471 1475 1478 1480 1482 1484 1486 1488 1490 1491 1491 1492 1492 1492 1491 1490 1489 1488 1486 1483 1480 1477 1474
1435 1442 1445 1448 1450 1455 1453 1457 1467 1469 1466 1462 1455 1451 1443 1443 1446 1452 1454 1458 1463 1469 1473 1477 1479 1481 1483 1485 1487 1489 1490 1491 1491 1491 1491 1490 1489 1487 1485 1483 1481 1478 1474 1471
1433 1436 1447 1448 1447 1450 1457 1460 1459 1463 1461 1456 1454 1447 1440 1442 1444 1447 1451 1455 1461 1466 1471 1475 1477 1480 1482 1485 1487 1488 1489 1490 1490 1490 1489 1488 1487 1485 1483 1480 1478 1475 1472 1468
1431 1431 1442 1445 1446 1444 1446 1449 1453 1459 1460 1453 1448 1446 1441 1443 1444 1446 1449 1454 1460 1465 1469 1473 1475 1478 1481 1484 1486 1487 1488 1488 1488 1488 1487 1486 1485 1482 1480 1477 1475 1472 1469 1465
1428 1429 1440 1450 1453 1450 1447 1445 1447 1449 1450 1451 1451 1444 1442 1443 1444 1445 1448 1453 1458 1463 1467 1470 1473 1476 1479 1482 1484 1486 1486 1487 1487 1486 1485 1484 1482 1480 1477 1474 1472 1469 1465 1462
1427 1424 1424 1427 1426 1434 1441 1443 1443 1446 1448 1446 1443 1437 1438 1440 1442 1445 1448 1452 1456 1460 1464 1467 1471 1474 1477 1480 1483 1484 1485 1485 1485 1484 1483 1481 1479 1477 1474 1471 1469 1465 1462 1458
1425 1422 1421 1420 1423 1425 1429 1435 1438 1438 1435 1437 1434 1436 1433 1435 1439 1443 1446 1450 1454 1458 1461 1464 1468 1472 1475 1478 1480 1482 1483 1483 1482 1482 1480 1478 1476 1474 1471 1468 1465 1462 1458 1453
1422 1421 1421 1424 1426 1426 1427 1426 1428 1430 1430 1430 1430 1430 1429 1435 1440 1442 1445 1448 1452 1455 1458 1462 1466 1469 1473 1476 1478 1480 1481 1481 1480 1479 1477 1475 1473 1471 1468 1465 1462 1458 1453 1448
1418 1419 1420 1422 1428 1429 1428 1419 1419 1421 1420 1422 1425 1423 1430 1435 1438 1440 1443 1446 1449 1452 1456 1459 1463 1467 1470 1474 1476 1478 1478 1478 1477 1476 1474 1472 1470 1468 1465 1462 1458 1453 1448 1443
1415 1417 1419 1424 1427 1432 1406 1409 1408 1412 1413 1416 1417 1421 1425 1429 1436 1440 1443 1445 1448 1451 1454 1458 1462 1465 1469 1472 1474 1476 1476 1475 1474 1473 1471 1470 1467 1465 1462 1458 1454 1449 1443 1438
1413 1417 1423 1426 1421 1413 1407 1410 1411 1412 1411 1414 1418 1424 1428 1432 1436 1441 1443 1445 1448 1451 1454 1457 1460 1464 1467 1470 1472 1473 1473 1472 1471 1470 1469 1467 1464 1461 1458 1454 1449 1444 1438 1432
1417 1418 1424 1427 1424 1417 1401 1406 1408 1410 1411 1413 1416 1421 1426 1430 1432 1439 1443 1444 1447 1450 1453 1455 1459 1463 1466 1468 1470 1470 1470 1470 1469 1468 1466 1464 1461 1458 1454 1450 1445 1439 1433 1427
1418 1421 1422 1421 1417 1401 1403 1407 1409 1411 1404 1410 1415 1420 1425 1428 1430 1437 1441 1444 1447 1449 1452 1455 1458 1462 1464 1466 1467 1468 1468 1467 1466 1465 1463 1461 1458 1454 1450 1445 1440 1434 1427 1421
1404 1411 1414 1414 1413 1407 1406 1407 1406 1406 1410 1412 1417 1422 1426 1429 1433 1437 1441 1444 1446 1449 1452 1455 1458 1460 1462 1464 1465 1465 1465 1465 1464 1462 1460 1457 1454 1450 1445 1440 1434 1428 1422 1415
1397 1397 1397 1399 1403 1405 1405 1405 1406 1407 1411 1415 1418 1423 1426 1430 1434 1437 1441 1444 1446 1449 1451 1454 1456 1459 1460 1462 1462 1463 1463 1462 1461 1459 1456 1453 1450 1445 1440 1435 1429 1423 1417 1410
1399 1402 1401 1402 1403 1405 1405 1405 1407 1409 1412 1416 1420 1424 1428 1431 1435 1438 1441 1443 1446 1448 1451 1453 1455 1457 1458 1459 1460 1460 1460 1459 1457 1455 1452 1449 1444 1440 1435 1429 1423 1418 1412 1406
1392 1398 1399 1401 1404 1405 1406 1406 1408 1411 1414 1418 1422 1426 1429 1432 1435 1438 1441 1443 1445 1447 1449 1451 1453 1455 1456 1456 1457 1457 1456 1455 1453 1451 1447 1443 1439 1434 1429 1423 1418 1413 1408 1403
1391 1391 1392 1391 1396 1398 1402 1405 1409 1412 1416 1420 1423 1427 1430 1433 1435 1438 1440 1442 1444 1445 1447 1449 1451 1452 1453 1454 1454 1454 1453 1451 1449 1446 1442 1438 1433 1428 1423 1417 1412 1407 1402 1397